Albany, NY

6:02 AM EST on November 14, 2019 (GMT -0500)
Albany International

Weather History for KALB - September, 2019

Change the Weather History Date:

Wednesday, September 25, 2019

  Actual Average Record
Temperature  
Mean Temperature 63 °F 58 °F  
Max Temperature 76 °F 68 °F 91 °F (2017)
Min Temperature 50 °F 48 °F 29 °F (1963)
Degree Days  
Heating Degree Days 2 8  
Month to date heating degree days 54 99  
Since 1 July heating degree days 56 122  
Cooling Degree Days 0 1  
Month to date cooling degree days 41 49  
Year to date cooling degree days 764 592  
Growing Degree Days 12 (Base 50)    
Moisture  
Dew Point 51 °F    
Average Humidity 64    
Maximum Humidity 89    
Minimum Humidity 38    
Precipitation  
Precipitation T in 0.12 in 2.02 in (1940)
Month to date precipitation 1.95 2.71  
Year to date precipitation 30.93 28.86  
Sea Level Pressure  
Sea Level Pressure 29.86 in    
Wind  
Wind Speed 2 mph (SSW)    
Max Wind Speed 9 mph    
Max Gust Speed 13 mph    
Visibility 10 miles    
Events Fog    
T = Trace of Precipitation, MM = Missing Value Source: NWS Daily Summary

Daily Weather History Graph

Daily Weather History Graph

Search for Another Location

Airport or City:

Astronomy

Sep. 25, 2019 Rise Set
Actual Time 6:45 AM EDT 6:47 PM EDT
Civil Twilight 6:17 AM EDT 7:15 PM EDT
Nautical Twilight 5:44 AM EDT 7:48 PM EDT
Astronomical Twilight 5:10 AM EDT 8:22 PM EDT
Moon 2:28 AM EDT (9/25) 5:24 PM EDT (9/25)
Length of Visible Light 12h 58m
Length of Day
12h 02m
Waning Crescent, 14% of the Moon is Illuminated
Sep 25
Waning Crescent
Sep 28
New
Oct 5
First Quarter
Oct 13
Full
Oct 21
Last Quarter

Hourly Weather History & Observations

Time (EDT) Temp. Dew Point Humidity Pressure Visibility Wind Dir Wind Speed Gust Speed Precip Events Conditions
12:51 AM 57.0 °F 51.1 °F 81% 29.86 in 10.0 mi North 4.6 mph - N/A   Mostly Cloudy
1:51 AM 55.0 °F 50.0 °F 83% 29.86 in 10.0 mi Calm Calm - N/A   Scattered Clouds
2:51 AM 54.0 °F 50.0 °F 86% 29.85 in 10.0 mi Calm Calm - N/A   Partly Cloudy
3:51 AM 53.1 °F 48.0 °F 83% 29.87 in 10.0 mi Calm Calm - N/A   Clear
4:51 AM 52.0 °F 48.0 °F 86% 29.89 in 10.0 mi Calm Calm - N/A Fog Clear
5:51 AM 53.1 °F 50.0 °F 89% 29.90 in 10.0 mi NE 3.5 mph - N/A   Mostly Cloudy
6:51 AM 51.1 °F 48.0 °F 89% 29.90 in 10.0 mi Calm Calm - N/A Fog Patches of Fog
7:51 AM 54.0 °F 50.0 °F 86% 29.91 in 10.0 mi Calm Calm - N/A   Partly Cloudy
8:51 AM 59.0 °F 52.0 °F 78% 29.92 in 10.0 mi Calm Calm - N/A   Partly Cloudy
9:51 AM 62.1 °F 52.0 °F 70% 29.91 in 10.0 mi Calm Calm - N/A   Scattered Clouds
10:51 AM 66.0 °F 54.0 °F 65% 29.91 in 10.0 mi Calm Calm - N/A   Scattered Clouds
11:51 AM 70.0 °F 53.1 °F 55% 29.90 in 10.0 mi Variable 3.5 mph - N/A   Scattered Clouds
12:51 PM 70.0 °F 51.1 °F 51% 29.88 in 10.0 mi Variable 5.8 mph - N/A   Scattered Clouds
1:51 PM 73.0 °F 48.9 °F 42% 29.84 in 10.0 mi Calm Calm - N/A   Partly Cloudy
2:51 PM 73.9 °F 46.9 °F 38% 29.81 in 10.0 mi Variable 3.5 mph - N/A   Partly Cloudy
3:51 PM 75.9 °F 48.0 °F 37% 29.81 in 10.0 mi West 5.8 mph - N/A   Scattered Clouds
4:51 PM 75.9 °F 51.1 °F 42% 29.80 in 10.0 mi WNW 6.9 mph - N/A   Scattered Clouds
5:51 PM 73.9 °F 51.1 °F 45% 29.80 in 10.0 mi NE 3.5 mph - N/A   Scattered Clouds
6:51 PM 66.9 °F 53.1 °F 61% 29.82 in 10.0 mi South 4.6 mph - N/A   Scattered Clouds
7:51 PM 66.0 °F 53.1 °F 63% 29.82 in 10.0 mi Calm Calm - N/A   Scattered Clouds
8:51 PM 62.1 °F 52.0 °F 70% 29.82 in 10.0 mi Calm Calm - N/A   Scattered Clouds
9:51 PM 61.0 °F 52.0 °F 72% 29.83 in 10.0 mi South 3.5 mph - N/A   Scattered Clouds
10:51 PM 63.0 °F 52.0 °F 67% 29.83 in 10.0 mi SSE 4.6 mph - N/A   Scattered Clouds
11:51 PM 61.0 °F 52.0 °F 72% 29.83 in 10.0 mi South 5.8 mph - N/A   Scattered Clouds